Home   Weather   Karbala   Past weeks

Flag for Iraq Past Weather in Karbala, Iraq — Yesterday and Last 2 Weeks

Now
48 °F

Mostly cloudy.


Feels Like: 46 °F
Forecast: 54 / 65 °F
Wind: 5 mph from South

Location: Ilam

Current Time: Dec 5, 2016 at 9:44:47 pm

Latest Report: Dec 5, 2016 at 9:00 pm


Visibility: 5 mi

Pressure: 30.15 "Hg

Humidity: 82%

Dew Point: 43 °F

Location of KarbalaLocation

Past Weather in Karbala — Graph

°F

Karbala Temperature Yesterday

Maximum temperature yesterday: 63 °F (at 12:30 pm)
Minimum temperature yesterday: 34 °F (at 1:00 am)
Average temperature yesterday: 47 °F

High & Low Weather Summary for the Past Weeks

 TemperatureHumidityPressure
High63 °F (Nov 29, 2:00 pm)100% (Dec 1, 2:30 pm)30.36 "Hg (Dec 1, 2:30 pm)
Low27 °F (Nov 25, 6:00 am)4% (Nov 23, 10:30 am)29.92 "Hg (Dec 2, 4:00 am)
Average46 °F40%30.16 "Hg
* Reported Nov 20 8:00 pm — Dec 5 8:30 pm, Karbala, Weather by CustomWeather, © 2016

Note: Actual official high and low records may vary slightly from our data, if they occured in-between our weather recording intervals... More about our weather records

Advertising

Karbala Weather History for the Previous 24 Hours

Scroll right to see more
 ConditionsComfort  
Time TempWeatherWind HumidityBarometerVisibility
8:30 pm
Mon, Dec 5
46 °FCool.7 mph87%N/AN/A
8:00 pm48 °FLight rain. Mostly cloudy.5 mph82%30.18 "Hg5 mi
7:30 pm48 °FCool.2 mph82%N/AN/A
7:00 pm48 °FMostly cloudy.5 mph82%30.15 "Hg5 mi
6:30 pm48 °FCool.5 mph82%N/AN/A
6:00 pm46 °FLight rain. Mostly cloudy.5 mph87%30.18 "Hg4 mi
5:30 pm50 °FPartly cloudy.9 mph62%N/AN/A
5:00 pm54 °FBroken clouds.5 mph35%N/AN/A
4:30 pm55 °FBroken clouds.2 mph33%30.18 "HgN/A
4:00 pm57 °FBroken clouds.5 mph25%30.15 "HgN/A
3:30 pm57 °FBroken clouds.7 mph25%30.15 "HgN/A
3:00 pm57 °FBroken clouds.5 mph25%30.15 "HgN/A
2:30 pm57 °FMore clouds than sun.9 mph27%30.18 "HgN/A
2:00 pm57 °FBroken clouds.9 mph27%30.18 "HgN/A
1:00 pm57 °FMore clouds than sun.5 mph33%30.18 "HgN/A
12:00 pm59 °FMore clouds than sun.5 mph29%30.21 "HgN/A
11:00 am57 °FMore clouds than sun.5 mph33%30.24 "HgN/A
10:00 am55 °FMore clouds than sun.5 mph31%30.24 "HgN/A
9:00 am52 °FMore clouds than sun.5 mph41%30.24 "HgN/A
8:00 am50 °FBroken clouds.2 mph47%30.24 "HgN/A
7:30 am50 °FMostly cloudy.5 mph43%30.24 "HgN/A
7:00 am50 °FMostly cloudy.5 mph40%30.24 "HgN/A
6:00 am50 °FMostly cloudy.5 mph47%30.24 "HgN/A
5:00 am52 °FMostly cloudy.7 mph35%30.21 "HgN/A
4:30 am50 °FCool.5 mph47%N/AN/A
3:30 am48 °FCool.5 mph58%N/AN/A
3:00 am50 °FMostly cloudy.5 mph47%30.27 "HgN/A
2:30 am50 °FCool.5 mph50%N/AN/A
2:00 am48 °FPassing clouds.5 mph50%30.27 "HgN/A
1:30 am50 °FCool.5 mph47%N/AN/A
1:00 am48 °FPassing clouds.5 mph46%30.30 "HgN/A
12:30 am50 °FCool.7 mph47%N/AN/A
12:00 am50 °FMostly cloudy.5 mph50%30.30 "HgN/A
11:30 pm
Sun, Dec 4
48 °FCool.5 mph50%N/AN/A
11:00 pm48 °FPartly cloudy.7 mph50%30.30 "HgN/A
10:00 pm48 °FPartly cloudy.5 mph50%30.30 "HgN/A
9:30 pm48 °FCool.5 mph50%N/AN/A
9:00 pm50 °FOvercast.7 mph47%30.30 "HgN/A
Weather by CustomWeather, © 2016

See weather overviewHow to use our weather pages